Location: Brede
(50.9167°N, 0.6000°E)
Time: 02:25:16
(UTC+00:00)

SL-4 R/B - Pass Details

Date: 08 August 2020
Orbit: 428 x 665 km, 51.6° (Epoch: 19 September)

Event Time Altitude Azimuth Distance (km) Brightness Sun altitude
Exits shadow 03:30:19 13° 241° (WSW) 1,354 3.4 -9.3°
Maximum altitude 03:31:19 14° 221° (SW) 1,280 3.2 -9.1°
Drops below altitude 10° 03:33:14 10° 187° (S) 1,519 3.9 -8.9°
Sets 03:36:02 0° 161° (SSE) 2,389 5.1 -8.6°
